IZ3VCM Weather Reports


Display with metric or nautical units.
time (UTC)temp
F
wind
direction
speed
MPH
gust
MPH
rain 1hr
in
rain 24hr
in
rain mn
in
humidity
%
barometer
mb
20260509221504 61 0 0.0 0.0 0.00 0.00 0.00 74 1014.7
20260509220006 62 0 0.0 0.0 0.00 0.00 0.00 74 1014.6
20260509214503 62 169 2.0 4.0 0.00 0.00 0.00 73 1014.7
20260509213006 62 0 0.0 0.0 0.00 0.00 0.00 72 1014.6
20260509211504 62 0 0.0 0.0 0.00 0.00 0.00 71 1014.5
20260509210006 63 0 0.0 0.0 0.00 0.00 0.00 69 1014.8
20260509204504 64 157 0.0 2.0 0.00 0.00 0.00 68 1014.8
20260509203005 64 0 0.0 0.0 0.00 0.00 0.00 67 1014.8
20260509201503 64 0 0.0 0.0 0.00 0.00 0.00 66 1014.7
20260509200005 64 0 0.0 0.0 0.00 0.00 0.00 65 1014.5
20260509194504 65 0 0.0 0.0 0.00 0.00 0.00 65 1014.5
20260509193005 65 0 0.0 0.0 0.00 0.00 0.00 65 1014.2
20260509191503 66 135 0.0 1.0 0.00 0.00 0.00 63 1014.1
20260509190006 67 0 0.0 0.0 0.00 0.00 0.00 62 1014.0
20260509184503 68 135 1.0 3.0 0.00 0.00 0.00 61 1013.9
20260509183005 69 0 0.0 0.0 0.00 0.00 0.00 59 1013.9
20260509181504 70 121 1.0 2.0 0.00 0.00 0.00 58 1013.8
20260509180006 71 0 0.0 0.0 0.00 0.00 0.00 57 1013.7
20260509174504 72 0 0.0 0.0 0.00 0.00 0.00 55 1013.6
20260509173006 76 0 0.0 0.0 0.00 0.00 0.00 49 1013.6
20260509171504 78 0 0.0 0.0 0.00 0.00 0.00 46 1013.7
20260509170005 80 0 0.0 0.0 0.00 0.00 0.00 44 1013.6
20260509164503 80 156 0.0 1.0 0.00 0.00 0.00 45 1013.8
20260509163005 80 135 1.0 2.0 0.00 0.00 0.00 46 1013.8
20260509161504 80 0 0.0 0.0 0.00 0.00 0.00 46 1013.9
20260509160006 82 112 1.0 2.0 0.00 0.00 0.00 44 1014.0
20260509154503 83 0 0.0 0.0 0.00 0.00 0.00 44 1014.1
20260509153005 83 150 1.0 3.0 0.00 0.00 0.00 44 1014.0
20260509151503 84 225 0.0 1.0 0.00 0.00 0.00 42 1014.1
20260509150005 83 247 2.0 2.0 0.00 0.00 0.00 43 1014.2
20260509144503 83 0 0.0 0.0 0.00 0.00 0.00 43 1014.2
20260509143005 83 231 2.0 8.0 0.00 0.00 0.00 43 1014.4
20260509141503 80 181 2.0 10.0 0.00 0.00 0.00 49 1014.6
20260509140006 79 0 0.0 0.0 0.00 0.00 0.00 49 1014.7
20260509134503 80 203 1.0 5.0 0.00 0.00 0.00 46 1014.8
20260509133005 83 220 2.0 4.0 0.00 0.00 0.00 45 1014.8
20260509131507 85 177 3.0 6.0 0.00 0.00 0.00 44 1014.9
20260509130005 86 135 0.0 1.0 0.00 0.00 0.00 46 1015.1
20260509124507 84 0 0.0 0.0 0.00 0.00 0.00 45 1015.1
20260509123005 82 0 0.0 0.0 0.00 0.00 0.00 47 1015.2
20260509121504 80 0 0.0 0.0 0.00 0.00 0.00 50 1015.3
20260509120005 81 0 0.0 0.0 0.00 0.00 0.00 49 1015.4
20260509114503 82 247 0.0 1.0 0.00 0.00 0.00 49 1015.6
20260509113004 82 0 0.0 0.0 0.00 0.00 0.00 47 1015.8
20260509111503 81 225 0.0 2.0 0.00 0.00 0.00 50 1015.8
20260509110005 82 225 0.0 1.0 0.00 0.00 0.00 49 1015.9
20260509104503 81 0 0.0 0.0 0.00 0.00 0.00 51 1016.0
20260509103006 79 45 0.0 1.0 0.00 0.00 0.00 54 1016.4
20260509101503 78 314 0.0 1.0 0.00 0.00 0.00 55 1016.5
20260509100006 78 0 0.0 0.0 0.00 0.00 0.00 56 1016.5
20260509094503 79 314 0.0 2.0 0.00 0.00 0.00 56 1016.5
20260509093005 79 0 0.0 0.0 0.00 0.00 0.00 59 1016.6
20260509091503 77 292 1.0 3.0 0.00 0.00 0.00 56 1016.8
20260509090007 78 337 0.0 1.0 0.00 0.00 0.00 59 1016.9
20260509084503 77 0 0.0 0.0 0.00 0.00 0.00 60 1016.9
20260509083006 75 0 0.0 0.0 0.00 0.00 0.00 60 1016.9
20260509081503 76 0 0.0 0.0 0.00 0.00 0.00 59 1017.1
20260509080005 74 203 1.0 4.0 0.00 0.00 0.00 64 1017.0
20260509074503 75 0 0.0 0.0 0.00 0.00 0.00 64 1017.1
20260509073005 73 0 0.0 0.0 0.00 0.00 0.00 68 1017.0
20260509071504 71 0 0.0 0.0 0.00 0.00 0.00 71 1017.2
20260509070006 68 0 0.0 0.0 0.00 0.00 0.00 75 1017.2
20260509064503 67 0 0.0 0.0 0.00 0.00 0.00 78 1017.0